OpenBCM V1.13 (Linux)

Packet Radio Mailbox

DB0FHN

[JN59NK Nuernberg]

 Login: GUEST





  
LU9DCE > KEP      19.03.19 19:34l 252 Lines 12350 Bytes #999 (0) @ WW
BID : 20279_LU9DCE
Read: DF7EAV DK3UZ GUEST
Subj: TLE 19 03
Path: DB0FHN<DB0BLO<DB0ERF<DB0RES<PI8CDR<GB7YEW<LU9DCE
Sent: 190319/1801Z 20279@LU9DCE.TOR.BA.ARG.SOAM LinBPQ6.0.18

            __    _  _  ___  ____   ___  ____    ____  ____  ____
           (  )  / )( \/ _ \(    \ / __)(  __)  (  _ \(  _ \/ ___)
           / (_/\) \/ (\__  )) D (( (__  ) _)    ) _ ( ) _ (\___ \
           \____/\____/(___/(____/ \___)(____)  (____/(____/(____/
               ESTACION DE PACKET RADIO - BUENOS AIRES (GF05OM)
                   BOLETINES INFORMATIVOS PROGRAMADOS (BIP)
                  SOPORTE TECNICO - HELLOCODELINUX@GMAIL.COM

+----------------------------------------------------------------------------+
OSCAR 7
1  7530U 74089B   19077.84636312 -.00000036  00000-0  55424-4 0  9994
2  7530 101.7330  46.4905 0012176 162.8196 226.6662 12.53637276 29014
OSCAR 11 (UoSAT 2)
1 14781U 84021B   19077.87522554 +.00000074 +00000-0 +15181-4 0  9999
2 14781 097.6207 106.8892 0007010 259.1544 100.8881 14.83070053864157
OSCAR 19 (LUSAT)
1 20442U 90005G   19077.77643580 -.00000012 +00000-0 +11766-4 0  9999
2 20442 098.6401 019.9749 0012819 062.8894 297.3596 14.32919610523152
EYESAT A
1 22825U 93061C   19077.84333504  .00000003  00000-0  19140-4 0  9994
2 22825  98.8971  64.4150 0007328 266.4412  93.5931 14.30053551328828
ITAMSAT
1 22826U 93061D   19077.79643372  .00000004  00000-0  19506-4 0  9993
2 22826  98.8911  64.3700 0007877 254.2323 105.7990 14.30386623329010
RADIO ROSTO
1 23439U 94085A   19077.93624512 -.00000026 +00000-0 +45377-3 0  9991
2 23439 064.8140 264.5066 0148357 130.8099 022.4228 11.27568317997548
JAS 2
1 24278U 96046B   19077.93404877 +.00000006 +00000-0 +38713-4 0  9996
2 24278 098.5231 243.8548 0351301 117.9527 245.7638 13.53089819115146
TECHSAT 1B
1 25397U 98043D   19077.69190375 -.00000021 +00000-0 +10208-4 0  9993
2 25397 098.6807 018.9932 0000773 005.5128 354.6059 14.23661842074567
ISS (ZARYA)
1 25544U 98067A   19078.50922463  .00002136  00000-0  41294-4 0  9992
2 25544  51.6415  87.0507 0003849 116.2646  19.2183 15.52828290161320
PCSAT
1 26931U 01043C   19077.91268862 -.00000045 +00000-0 +14498-4 0  9995
2 26931 067.0499 240.5113 0005428 274.8952 085.1529 14.30535444911778
SAUDISAT 1C
1 27607U 02058C   19077.71110903 -.00000012 +00000-0 +19208-4 0  9991
2 27607 064.5559 330.8122 0082340 274.0451 085.1243 14.75527718873331
CUTE-1
1 27844U 03031E   19077.48834172 +.00000053 +00000-0 +43484-4 0  9998
2 27844 098.6869 087.0690 0008792 301.5092 058.5226 14.22165167815141
CUBESAT XI 4
1 27848U 03031J   19077.94691543 +.00000040 +00000-0 +37903-4 0  9991
2 27848 098.6948 087.9998 0008808 312.4107 047.6324 14.21762129815079
MOZHAYETS 4
1 27939U 03042A   19077.81771035  .00000076  00000-0  22135-4 0  9995
2 27939  98.0222 215.5063 0012938   5.3677 354.7676 14.66761219827073
CUBESAT XI 5
1 28895U 05043F   19077.83343400 +.00000121 +00000-0 +32161-4 0  9994
2 28895 097.9433 223.7918 0015440 282.3831 077.5644 14.63639153713816
CUTE-1.7+APD II
1 32785U 08021C   19077.84534533 +.00000215 +00000-0 +28864-4 0  9995
2 32785 097.5492 081.8983 0012466 201.2633 158.8067 14.88264126589959
DELFI C3
1 32789U 08021G   19077.11468559 +.00000929 +00000-0 +66458-4 0  9996
2 32789 097.4762 129.5296 0013925 084.2216 276.0599 15.06721138592922
SEEDS
1 32791U 08021J   19077.81636913 +.00000277 +00000-0 +33544-4 0  9993
2 32791 097.5303 087.7367 0013417 177.1858 182.9439 14.90754365590343
YUBELEINY
1 32953U 08025A   19077.89279101 +.00000020 +00000-0 +75656-4 0  9993
2 32953 082.5057 201.8358 0018342 332.6413 027.3693 12.43088086490900
PRISM (HITOMI)
1 33493U 09002B   19077.73106654  .00000587  00000-0  57115-4 0  9992
2 33493  98.1234 355.2042 0016323 123.6811 236.5968 14.96547673551393
KKS-1 (KISEKI)
1 33499U 09002H   19077.91765039 +.00000088 +00000-0 +21027-4 0  9995
2 33499 098.3549 273.6645 0010103 133.5002 226.7047 14.75414749545266
SWISSCUBE
1 35932U 09051B   19077.66456385  .00000115  00000-0  37091-4 0  9995
2 35932  98.5762 240.9955 0008809  89.5595 270.6611 14.56253574503385
BEESAT
1 35933U 09051C   19077.87940234 +.00000100 +00000-0 +33576-4 0  9998
2 35933 098.5796 242.9278 0007034 100.3488 259.8502 14.56346747503445
ITUPSAT 1
1 35935U 09051E   19077.88427930 +.00000081 +00000-0 +29749-4 0  9999
2 35935 098.5908 243.1766 0009344 097.3549 262.8710 14.55510918503252
XIWANG-1 (HOPE-1)
1 36122U 09072B   19077.69403384 -.00000029 +00000-0 +34649-4 0  9995
2 36122 100.0745 084.4009 0007269 191.9373 168.1558 13.16348639444779
TISAT 1
1 36799U 10035E   19077.87985223 +.00000450 +00000-0 +51577-4 0  9999
2 36799 098.1411 227.0639 0012845 033.1140 327.0879 14.91028371470880
JUGNU
1 37839U 11058B   19077.64235718 +.00000328 +00000-0 +33012-4 0  9991
2 37839 019.9603 172.9715 0019089 032.6198 113.4006 14.12644426384114
SRMSAT
1 37841U 11058D   19077.76979972 +.00000305 +00000-0 +22176-4 0  9998
2 37841 019.9712 227.0743 0011765 267.4164 229.6196 14.10626696383605
M-CUBED/EXP-1 PRIME
1 37855U 11061F   19077.87371401 +.00000894 +00000-0 +52919-4 0  9993
2 37855 101.7272 286.2842 0174310 348.9314 010.8083 15.05200141402498
HORYU 2
1 38340U 12025D   19077.90304821 +.00000186 +00000-0 +35303-4 0  9992
2 38340 098.3406 113.6852 0012592 060.7525 299.4941 14.75679872357212
STRAND 1
1 39090U 13009E   19077.54315578 +.00000037 +00000-0 +28166-4 0  9993
2 39090 098.4977 284.9952 0008751 196.0109 164.0801 14.35074189317152
SOMP
1 39134U 13015E   19077.64513220 +.00001324 +00000-0 +70458-4 0  9995
2 39134 064.8638 318.5953 0021953 316.9354 043.0055 15.19904977326226
BEESAT 3
1 39135U 13015F   19077.86653783 +.00000835 +00000-0 +51553-4 0  9990
2 39135 064.8695 334.9129 0009900 296.6793 063.3319 15.17265632325926
BEESAT 2
1 39136U 13015G   19077.86962117 +.00000912 +00000-0 +56189-4 0  9991
2 39136 064.8712 338.4445 0011421 294.4451 065.5482 15.16709464325857
CUBEBUG 1
1 39153U 13018D   19077.91700331 +.00000205 +00000-0 +33689-4 0  9992
2 39153 097.9744 176.5887 0018063 133.2192 227.0532 14.80526326318150
ZACUBE
1 39417U 13066B   19077.95946182 +.00000236 +00000-0 +36122-4 0  9997
2 39417 097.5685 096.5892 0058275 336.1526 023.6989 14.81070043287460
TRITON 1
1 39427U 13066M   19077.90380175 +.00000217 +00000-0 +42221-4 0  9993
2 39427 097.6677 061.0022 0115375 099.2585 262.1691 14.67792861284686
GOMX 1
1 39430U 13066Q   19077.87549844  .00000146  00000-0  35497-4 0  9991
2 39430  97.7346  40.5385 0151133 183.2396 176.7854 14.59207654283215
HUMSAT D
1 39433U 13066T   19077.80988729 +.00000541 +00000-0 +58211-4 0  9994
2 39433 097.5663 129.0134 0029439 245.8236 113.9905 14.92106571288199
CUBEBUG 2
1 39440U 13066AA  19077.95009478 +.00000255 +00000-0 +42367-4 0  9990
2 39440 097.6015 081.8101 0080940 024.0658 336.4301 14.75807833285242
FUNCUBE 1
1 39444U 13066AE  19077.87531109 +.00000264 +00000-0 +38902-4 0  9996
2 39444 097.5674 098.3621 0057245 330.6503 029.1499 14.81878937285742
UWE-3
1 39446U 13066AG  19077.70518367  .00000246  00000-0  39256-4 0  9994
2 39446  97.5838  88.4794 0070064   1.5437 358.5978 14.78342760285670
SPROUT
1 39770U 14029E   19077.72959445  .00000678  00000-0  81386-4 0  9992
2 39770  97.8798 181.6718 0010035  35.0787 325.1144 14.87215284261165
UNISAT 6
1 40012U 14033C   19077.89412295 +.00000171 +00000-0 +32841-4 0  9993
2 40012 097.7716 308.3839 0059250 035.1273 325.3820 14.73938398255169
DUCHIFAT 1
1 40021U 14033M   19077.30905549 +.00000362 +00000-0 +42924-4 0  9993
2 40021 097.9225 001.6139 0013041 001.6785 358.4474 14.90548027257783
QB50P1
1 40025U 14033R   19077.76474821 +.00000270 +00000-0 +34829-4 0  9994
2 40025 097.9066 357.5991 0012699 008.8251 351.3187 14.88884423257136
CHUBUSAT 1
1 40300U 14070C   19077.21840491  .00000593  00000-0  28886-4 0  9995
2 40300  97.3362 153.7117 0021193  24.3380  36.2303 15.21950509241955
NUDT-PHONESAT
1 40900U 15049B   19077.95205426 +.00002131 +00000-0 +95131-4 0  9999
2 40900 097.4411 088.2035 0014209 140.1034 243.9055 15.22385700193707
ZDPS 2A
1 40901U 15049C   19077.76420494  .00000738  00000-0  40040-4 0  9993
2 40901  97.4617  84.9250 0014227 155.5933 290.7766 15.17552552193294
ZDPS 2B
1 40902U 15049D   19077.84884439  .00000693  00000-0  38063-4 0  9998
2 40902  97.4547  82.6280 0014321 153.1765 327.0407 15.17326931193282
XW-2A
1 40903U 15049E   19077.80467771  .00002141  00000-0  52997-4 0  9993
2 40903  97.3513 120.0044 0015447 113.9892 334.9303 15.41476209196090
KAITUO 1A
1 40904U 15049F   19077.81856544  .00000553  00000-0  32825-4 0  9998
2 40904  97.4668  81.4114 0015120 159.8433 323.3768 15.15272540193085
OBJECT G
1 40905U 15049G   19077.76112032  .00000082  00000-0  80774-5 0  9994
2 40905  97.4691  79.0221 0016261 154.4408 290.9898 15.14203635192961
XW-2C
1 40906U 15049H   19077.95232448 +.00000430 +00000-0 +26120-4 0  9991
2 40906 097.4671 081.5636 0015659 151.1527 239.2424 15.15543097193102
XW-2D
1 40907U 15049J   19077.81773736  .00000620  00000-0  35936-4 0  9993
2 40907  97.4648  81.1099 0015013 148.6604 289.5989 15.15721676193090
LILACSAT 2
1 40908U 15049K   19077.77655738  .00000096  00000-0  89586-5 0  9998
2 40908  97.4774  80.0571 0016768 154.5045 291.9854 15.13722111192907
XW-2F
1 40910U 15049M   19077.86571149 +.00001210 +00000-0 +64294-4 0  9991
2 40910 097.4626 082.9687 0015823 143.1197 302.4463 15.17089804193092
XW-2B
1 40911U 15049N   19077.78173400  .00000611  00000-0  35542-4 0  9999
2 40911  97.4678  81.6993 0015138 149.8064 296.5235 15.15655867192984
KAITUO 1B
1 40912U 15049P   19077.77212509  .00001083  00000-0  54277-4 0  9993
2 40912  97.4515  86.3255 0016437 129.0576 316.9518 15.19372499193353
TIANWANG 1C (TW-1C)
1 40926U 15051B   19077.86903169  .00013119  00000-0  20632-3 0  9990
2 40926  97.1497 124.2279 0008709   6.8914  79.5366 15.53694814195893
